Belgrade, MT

1:23 AM MST on February 10, 2016 (GMT -0700)
Gallatin

Weather History for KBZN - March, 2014

Change the Weather History Date:

Saturday, March 22, 2014

  Actual Average Record
Temperature  
Mean Temperature 23 °F 39 °F  
Max Temperature 34 °F 52 °F 72 °F (1972)
Min Temperature 12 °F 25 °F -2 °F (1943)
Degree Days  
Heating Degree Days 42 26  
Month to date heating degree days 718 660  
Since 1 July heating degree days 6733 6240  
Cooling Degree Days 0 0  
Month to date cooling degree days 0 0  
Year to date cooling degree days 0 0  
Moisture  
Dew Point 13 °F    
Average Humidity 64    
Maximum Humidity 88    
Minimum Humidity 39    
Precipitation  
Precipitation T in 0.03 in 0.26 in (1965)
Month to date precipitation 1.12 0.59  
Year to date precipitation 2.07 1.50  
Snow  
Snow T in 0.30 in 5.00 in (1965)
Month to date snowfall 4.1 5.3  
Since 1 July snowfall 29.1 27.6  
Snow Depth 0.00 in    
Sea Level Pressure  
Sea Level Pressure 30.33 in    
Wind  
Wind Speed 4 mph (NW)    
Max Wind Speed 15 mph    
Max Gust Speed 17 mph    
Visibility 7 miles    
Events Snow    
T = Trace of Precipitation, MM = Missing Value Source: NWS Daily Summary

Daily Weather History Graph

Daily Weather History Graph

Search for Another Location

Airport or City:

Trip Planner

Search our weather history database for the weather conditions in past years. The results will help you decide how hot, cold, wet, or windy it might be!

Date:

Astronomy

Mar. 22, 2014 Rise Set
Actual Time 7:23 AM MDT 7:39 PM MDT
Civil Twilight 6:53 AM MDT 8:09 PM MDT
Nautical Twilight 6:18 AM MDT 8:44 PM MDT
Astronomical Twilight 5:43 AM MDT 9:20 PM MDT
Moon 1:17 AM MDT (3/22) 10:55 AM MDT (3/22)
Length of Visible Light 13h 15m
Length of Day
12h 16m
Waning Gibbous, 65% of the Moon is Illuminated
Mar 22
Waning Gibbous
Mar 23
Last Quarter
Mar 30
New
Apr 7
First Quarter
Apr 15
Full

Hourly Weather History & Observations

Time (MDT) Temp. Windchill Dew Point Humidity Pressure Visibility Wind Dir Wind Speed Gust Speed Precip Events Conditions
12:56 AM 19.9 °F 6.7 °F 12.9 °F 74% 30.33 in 10.0 mi NNW 13.8 mph - N/A   Mostly Cloudy
1:46 AM 19.9 °F 13.4 °F 12.0 °F 71% 30.20 in 10.0 mi NNW 4.6 mph - N/A   Overcast
1:56 AM 21.0 °F 12.4 °F 12.9 °F 71% 30.33 in 10.0 mi WNW 6.9 mph - N/A   Overcast
2:56 AM 19.0 °F 11.1 °F 14.0 °F 81% 30.35 in 4.0 mi NNW 5.8 mph - 0.00 in Snow Light Snow
3:09 AM 18.0 °F 8.7 °F 14.0 °F 84% 30.21 in 4.0 mi NNW 6.9 mph - 0.00 in Snow Light Snow
3:34 AM 18.0 °F 8.7 °F 14.0 °F 84% 30.21 in 4.0 mi NNW 6.9 mph - 0.00 in Snow Light Snow
3:56 AM 18.0 °F 7.7 °F 12.9 °F 81% 30.35 in 4.0 mi NW 8.1 mph - 0.00 in Snow Light Snow
4:24 AM 18.0 °F 7.7 °F 14.0 °F 84% 30.22 in 2.0 mi NNW 8.1 mph - 0.00 in Snow Light Snow
4:56 AM 18.0 °F 6.9 °F 14.0 °F 84% 30.36 in 2.5 mi North 9.2 mph - 0.00 in Snow Light Snow
5:27 AM 18.0 °F 8.7 °F 14.0 °F 84% 30.24 in 1.8 mi NNW 6.9 mph - 0.00 in Snow Light Snow
5:40 AM 17.1 °F 8.7 °F 14.0 °F 88% 30.24 in 1.2 mi NNW 5.8 mph - 0.00 in Snow Light Snow
5:56 AM 17.1 °F 8.7 °F 14.0 °F 88% 30.39 in 1.2 mi NW 5.8 mph - 0.00 in Snow Light Snow
6:01 AM 17.1 °F 8.7 °F 12.9 °F 84% 30.25 in 1.5 mi NNW 5.8 mph - 0.00 in Snow Light Snow
6:24 AM 16.0 °F 7.4 °F 12.9 °F 88% 30.25 in 2.0 mi NW 5.8 mph - 0.00 in Snow Light Snow
6:56 AM 16.0 °F 6.3 °F 12.0 °F 84% 30.42 in 1.5 mi NW 6.9 mph - 0.00 in Snow Light Snow
7:01 AM 15.1 °F 5.2 °F 12.0 °F 88% 30.27 in 1.2 mi NNW 6.9 mph - 0.00 in Snow Light Snow
7:11 AM 15.1 °F 7.7 °F 10.9 °F 84% 30.27 in 1.5 mi NW 4.6 mph - 0.00 in Snow Light Snow
7:29 AM 14.0 °F 6.5 °F 10.9 °F 88% 30.28 in 1.0 mi NW 4.6 mph - 0.00 in Snow Light Snow
7:47 AM 12.9 °F 6.9 °F 10.0 °F 88% 30.28 in 1.8 mi NW 3.5 mph - 0.00 in Snow Light Snow
7:53 AM 12.2 °F 4.3 °F 8.6 °F 85% 30.29 in 3.0 mi NW 4.6 mph - 0.00 in Snow Light Snow
7:54 AM 12.9 °F 5.2 °F 9.0 °F 84% 30.47 in 3.0 mi NW 4.6 mph - 0.00 in Snow Light Snow
8:38 AM 14.0 °F 8.2 °F 9.0 °F 80% 30.30 in 8.0 mi West 3.5 mph - 0.00 in   Overcast
8:56 AM 14.0 °F 8.2 °F 9.0 °F 80% 30.48 in 10.0 mi NW 3.5 mph - 0.00 in   Overcast
9:16 AM 15.1 °F 9.4 °F 10.0 °F 80% 30.31 in 10.0 mi NW 3.5 mph - N/A   Overcast
9:56 AM 18.0 °F 12.7 °F 10.9 °F 74% 30.48 in 10.0 mi NW 3.5 mph - N/A   Overcast
10:04 AM 18.0 °F 11.1 °F 10.9 °F 74% 30.31 in 10.0 mi North 4.6 mph - N/A   Overcast
10:56 AM 19.0 °F 12.3 °F 10.9 °F 71% 30.49 in 10.0 mi NNW 4.6 mph - N/A   Overcast
11:54 AM 21.2 °F 12.6 °F 14.0 °F 74% 30.31 in 10.0 mi NNW 6.9 mph - N/A   Mostly Cloudy
11:56 AM 21.9 °F 13.4 °F 12.9 °F 68% 30.49 in 10.0 mi NNW 6.9 mph - N/A   Mostly Cloudy
12:56 PM 23.0 °F 17.0 °F 12.9 °F 65% 30.47 in 10.0 mi Variable 4.6 mph - N/A   Mostly Cloudy
1:56 PM 25.0 °F - 14.0 °F 63% 30.44 in 10.0 mi Calm Calm - N/A   Mostly Cloudy
2:03 PM 25.0 °F - 12.9 °F 60% 30.28 in 10.0 mi Calm Calm - N/A   Partly Cloudy
2:56 PM 28.9 °F 25.2 °F 15.1 °F 56% 30.41 in 10.0 mi Variable 3.5 mph - N/A   Clear
3:56 PM 30.0 °F - 14.0 °F 51% 30.39 in 10.0 mi Calm Calm - N/A   Clear
4:56 PM 32.0 °F 28.7 °F 14.0 °F 48% 30.35 in 10.0 mi South 3.5 mph - N/A   Clear
5:56 PM 33.1 °F - 12.9 °F 43% 30.33 in 10.0 mi Calm Calm - N/A   Clear
6:56 PM 32.0 °F 28.7 °F 10.9 °F 42% 30.31 in 10.0 mi SSE 3.5 mph - N/A   Clear
7:56 PM 26.1 °F 18.4 °F 14.0 °F 60% 30.32 in 10.0 mi SE 6.9 mph - N/A   Clear
8:56 PM 27.0 °F 23.0 °F 17.1 °F 66% 30.31 in 10.0 mi West 3.5 mph - N/A   Partly Cloudy
9:56 PM 25.0 °F 20.7 °F 18.0 °F 75% 30.29 in 10.0 mi ENE 3.5 mph - N/A   Partly Cloudy
10:56 PM 26.1 °F 20.5 °F 18.0 °F 71% 30.27 in 10.0 mi South 4.6 mph - N/A   Scattered Clouds
11:56 PM 28.0 °F - 17.1 °F 63% 30.23 in 10.0 mi Calm Calm - N/A   Overcast